Weather History for Kuching, Malaysia

Change the Weather History Date:

Thursday, August 22, 2013

  Actual Average Record
Temperature  
Mean Temperature 81 °F -  
Max Temperature 91 °F 89 °F - ()
Min Temperature 71 °F 72 °F - ()
Cooling Degree Days 16    
Growing Degree Days 31 (Base 50)    
Moisture  
Dew Point 74 °F    
Average Humidity 85    
Maximum Humidity 100    
Minimum Humidity 53    
Precipitation  
Precipitation 0.00 in 0.34 in - ()
Sea Level Pressure  
Sea Level Pressure 29.79 in    
Wind  
Wind Speed 4 mph ()    
Max Wind Speed 13 mph    
Max Gust Speed -    
Visibility 4.5 miles    
Events Rain , Thunderstorm    
T = Trace of Precipitation, MM = Missing Value Source: Averaged Metar Reports

Daily Weather History Graph

Daily Weather History Graph

Search for Another Location

Airport:

Trip Planner

Search our weather history database for the weather conditions in past years. The results will help you decide how hot, cold, wet, or windy it might be!

Date:

Astronomy

Aug. 22, 2013 Rise Set
Actual Time 6:37 AM MYT 6:46 PM MYT
Civil Twilight 6:15 AM MYT 7:07 PM MYT
Nautical Twilight 5:51 AM MYT 7:31 PM MYT
Astronomical Twilight 5:26 AM MYT 7:56 PM MYT
Moon 7:47 PM MYT (8/22) 7:19 AM MYT (8/22)
Length of Visible Light 12h 51m
Length of Day
12h 09m
Full, 98% of the Moon is Illuminated
Aug 22
Full
Aug 28
Last Quarter
Sep 5
New
Sep 13
First Quarter
Sep 19
Full

Hourly Weather History & Observations

Time (MYT) Temp. Heat Index Dew Point Humidity Pressure Visibility Wind Dir Wind Speed Gust Speed Precip Events Conditions
12:00 AM 77.0 °F - 75.2 °F 94% 29.83 in 5.0 mi South 3.5 mph - N/A   Mostly Cloudy
12:30 AM 77.0 °F - 73.4 °F 89% 29.80 in 5.0 mi SSW 3.5 mph - N/A   Mostly Cloudy
1:00 AM 77.0 °F - 73.4 °F 89% 29.80 in 5.0 mi SW 3.5 mph - N/A   Mostly Cloudy
1:30 AM 77.0 °F - 73.4 °F 89% 29.80 in 5.0 mi West 3.5 mph - N/A   Mostly Cloudy
2:00 AM 77 °F - 74 °F 88% 29.80 in 5 mi West 3.5 mph - -   Haze
2:00 AM 77.0 °F - 73.4 °F 89% 29.80 in 5.0 mi West 3.5 mph - N/A   Mostly Cloudy
2:30 AM 77.0 °F - 73.4 °F 89% 29.77 in 5.0 mi West 3.5 mph - N/A   Mostly Cloudy
3:00 AM 77.0 °F - 73.4 °F 89% 29.77 in 5.0 mi West 3.5 mph - N/A   Mostly Cloudy
3:30 AM 77.0 °F - 73.4 °F 89% 29.77 in 5.0 mi SW 3.5 mph - N/A   Mostly Cloudy
4:00 AM 77.0 °F - 73.4 °F 89% 29.77 in 5.0 mi WSW 3.5 mph - N/A   Mostly Cloudy
4:30 AM 77.0 °F - 73.4 °F 89% 29.77 in 5.0 mi West 2.3 mph - N/A   Mostly Cloudy
5:00 AM 77.0 °F - 73.4 °F 89% 29.80 in 5.0 mi West 2.3 mph - N/A   Mostly Cloudy
5:30 AM 77.0 °F - 71.6 °F 83% 29.80 in 4.3 mi West 2.3 mph - N/A   Mostly Cloudy
6:00 AM 75.2 °F - 73.4 °F 94% 29.80 in 4.3 mi SSW 2.3 mph - N/A   Mostly Cloudy
6:30 AM 75.2 °F - 73.4 °F 94% 29.80 in 4.3 mi SSW 3.5 mph - N/A   Mostly Cloudy
7:00 AM 75.2 °F - 73.4 °F 94% 29.80 in 4.3 mi West 2.3 mph - N/A   Mostly Cloudy
7:30 AM 75.2 °F - 73.4 °F 94% 29.80 in 3.7 mi SW 1.2 mph - N/A   Mostly Cloudy
8:00 AM 78 °F - 74 °F 83% 29.83 in 4 mi WSW 2.3 mph - -   Haze
8:00 AM 78.8 °F - 73.4 °F 83% 29.83 in 3.7 mi WSW 2.3 mph - N/A   Mostly Cloudy
8:30 AM 80.6 °F 86.2 °F 75.2 °F 84% 29.83 in 3.7 mi WSW 3.5 mph - N/A   Mostly Cloudy
9:00 AM 82.4 °F 90.9 °F 77.0 °F 84% 29.83 in 3.1 mi South 3.5 mph - N/A   Haze
9:30 AM 84.2 °F 96.1 °F 78.8 °F 84% 29.83 in 3.1 mi South 4.6 mph - N/A   Haze
10:00 AM 86.0 °F 99.3 °F 78.8 °F 79% 29.83 in 3.1 mi South 5.8 mph - N/A   Haze
10:30 AM 87.8 °F 102.5 °F 78.8 °F 75% 29.80 in 3.1 mi SSE 5.8 mph - N/A   Haze
11:00 AM 87.8 °F 95.6 °F 73.4 °F 62% 29.80 in 3.1 mi SE 5.8 mph - N/A   Haze
11:30 AM 89.6 °F 99.8 °F 75.2 °F 62% 29.80 in 3.1 mi ESE 5.8 mph - N/A   Haze
12:00 PM 91.4 °F 102.5 °F 75.2 °F 59% 29.80 in 2.5 mi SSE 4.6 mph - N/A   Haze
12:30 PM 91.4 °F 102.5 °F 75.2 °F 59% 29.77 in 2.5 mi SE 3.5 mph - N/A   Haze
1:00 PM 89.6 °F 99.8 °F 75.2 °F 62% 29.77 in 2.5 mi SE 5.8 mph - N/A   Haze
1:30 PM 91.4 °F 102.5 °F 75.2 °F 59% 29.74 in 2.5 mi SE 5.8 mph - N/A   Haze
2:00 PM 91 °F - 76 °F 53% 29.75 in 2 mi South 3.5 mph - -   Haze
2:00 PM 91.4 °F 102.5 °F 75.2 °F 59% 29.74 in 2.5 mi South 3.5 mph - N/A   Haze
2:30 PM 89.6 °F 99.8 °F 75.2 °F 62% 29.74 in 2.5 mi ESE 3.5 mph - N/A   Haze
3:00 PM 82.4 °F 90.9 °F 77.0 °F 84% 29.71 in 3.1 mi North 10.4 mph - N/A Rain , Thunderstorm Light Thunderstorms and Rain
3:30 PM 73.4 °F - 69.8 °F 88% 29.74 in 0.3 mi NNE 9.2 mph - N/A Rain , Thunderstorm Heavy Thunderstorms and Rain
4:00 PM 71.6 °F - 71.6 °F 100% 29.77 in 1.9 mi ENE 12.7 mph - N/A Rain , Thunderstorm Thunderstorms and Rain
4:30 PM 73.4 °F - 71.6 °F 94% 29.74 in 3.7 mi ENE 8.1 mph - N/A Rain , Thunderstorm Light Thunderstorms and Rain
5:00 PM 73 °F - 72 °F 98% 29.73 in 5 mi ENE 3.5 mph - - Rain , Thunderstorm Thunderstorms and Rain
5:00 PM 73.4 °F - 73.4 °F 100% 29.71 in 5.0 mi ENE 3.5 mph - N/A Rain , Thunderstorm Light Thunderstorms and Rain
5:30 PM 75.2 °F - 73.4 °F 94% 29.74 in 6.2 mi NW 3.5 mph - N/A   Mostly Cloudy
6:00 PM 75.2 °F - 73.4 °F 94% 29.74 in 6.2 mi SW 3.5 mph - N/A Rain Light Rain
6:30 PM 75.2 °F - 73.4 °F 94% 29.77 in 6.2 mi West 3.5 mph - N/A   Mostly Cloudy
7:00 PM 75.2 °F - 73.4 °F 94% 29.77 in 6.2 mi WSW 4.6 mph - N/A   Mostly Cloudy
7:30 PM 75.2 °F - 73.4 °F 94% 29.77 in 6.2 mi West 2.3 mph - N/A   Mostly Cloudy
8:00 PM 75.2 °F - 73.4 °F 94% 29.77 in 6.2 mi WNW 3.5 mph - N/A   Mostly Cloudy
8:30 PM 75.2 °F - 73.4 °F 94% 29.80 in 6.2 mi SE 4.6 mph - N/A Thunderstorm Thunderstorm
9:00 PM 75.2 °F - 73.4 °F 94% 29.83 in 6.2 mi SE 8.1 mph - N/A Thunderstorm Thunderstorm
9:30 PM 75.2 °F - 73.4 °F 94% 29.83 in 6.2 mi SSE 3.5 mph - N/A Thunderstorm Thunderstorm
10:00 PM 75.2 °F - 73.4 °F 94% 29.83 in 6.2 mi SSW 1.2 mph - N/A   Mostly Cloudy
10:30 PM 75.2 °F - 73.4 °F 94% 29.83 in 6.2 mi SSW 2.3 mph - N/A   Mostly Cloudy
11:00 PM 74 °F - 73 °F 96% 29.84 in 9 mi South 4.6 mph - -   Partly Cloudy
11:00 PM 75.2 °F - 73.4 °F 94% 29.83 in 6.2 mi South 4.6 mph - N/A   Mostly Cloudy
11:30 PM 75.2 °F - 73.4 °F 94% 29.83 in 6.2 mi SSW 3.5 mph - N/A   Mostly Cloudy